Location: Baia Mare
(47.6567°N, 23.5850°E)
Time: 18:43:34
(UTC+03:00)

ISS - Pass Details

Date: 13 September 2018
Orbit: 403 x 408 km, 51.6° (Epoch: 23 September)

Event Time Altitude Azimuth Distance (km) Brightness Sun altitude
Exits shadow 04:33:14 38° 33° (NNE) 641 -2.4 -23.6°
Drops below altitude 10° 04:35:51 10° 79° (E) 1,463 -0.1 -23.3°
Sets 04:38:00 0° 87° (E) 2,321 0.9 -23.0°
